Weather History for Greenwood, SC

Change the Weather History Date:

Sunday, December 15, 2013

  Actual Average (KAND) Record (KAND)
Temperature  
Mean Temperature 46 °F -  
Max Temperature 55 °F 54 °F 74 °F (1948)
Min Temperature 35 °F 35 °F 15 °F (2010)
Degree Days  
Heating Degree Days 20    
Moisture  
Dew Point 39 °F    
Average Humidity 77    
Maximum Humidity 97    
Minimum Humidity 45    
Precipitation  
Precipitation 0.06 in - - ()
Sea Level Pressure  
Sea Level Pressure 29.93 in    
Wind  
Wind Speed 7 mph (WSW)    
Max Wind Speed 12 mph    
Max Gust Speed 20 mph    
Visibility 8 miles    
Events Rain    
Averages and records for this station are not official NWS values.
T = Trace of Precipitation, MM = Missing Value Source: NWS Daily Summary

Daily Weather History Graph

Daily Weather History Graph

Search for Another Location

Airport:

Trip Planner

Search our weather history database for the weather conditions in past years. The results will help you decide how hot, cold, wet, or windy it might be!

Date:

Astronomy

Dec. 15, 2013 Rise Set
Actual Time 7:27 AM EST 5:20 PM EST
Civil Twilight 6:59 AM EST 5:48 PM EST
Nautical Twilight 6:28 AM EST 6:19 PM EST
Astronomical Twilight 5:57 AM EST 6:50 PM EST
Moon 4:20 PM EST (12/15) 5:45 AM EST (12/15)
Length of Visible Light 10h 48m
Length of Day
9h 52m
Waxing Gibbous, 97% of the Moon is Illuminated
Dec 15
Waxing Gibbous
Dec 17
Full
Dec 25
Last Quarter
Jan 1
New
Jan 7
First Quarter

Hourly Weather History & Observations

Time (EST) Temp. Windchill Dew Point Humidity Pressure Visibility Wind Dir Wind Speed Gust Speed Precip Events Conditions
12:08 AM 44.6 °F 43.1 °F 42.8 °F 93% 29.85 in 3.0 mi WNW 3.5 mph - 0.00 in Rain Light Rain
12:56 AM 45.0 °F 41.2 °F 43.0 °F 93% 29.86 in 4.0 mi South 6.9 mph - 0.04 in Rain Light Rain
1:56 AM 45.0 °F 41.8 °F 44.1 °F 97% 29.84 in 7.0 mi SW 5.8 mph - 0.02 in Rain Light Rain
2:56 AM 46.0 °F 43.9 °F 44.1 °F 93% 29.81 in 3.0 mi West 4.6 mph - 0.00 in   Overcast
3:03 AM 46.4 °F 43.5 °F 44.6 °F 93% 29.82 in 2.0 mi West 5.8 mph - 0.00 in Rain Light Rain
3:11 AM 46.4 °F 41.9 °F 44.6 °F 93% 29.82 in 1.5 mi SW 9.2 mph - 0.00 in Rain Light Rain
3:23 AM 46.4 °F 42.4 °F 44.6 °F 93% 29.81 in 3.0 mi SSW 8.1 mph - 0.00 in   Overcast
3:38 AM 46.4 °F 41.9 °F 44.6 °F 93% 29.81 in 2.0 mi SW 9.2 mph - 0.00 in   Overcast
3:52 AM 46.4 °F 41.9 °F 44.6 °F 93% 29.81 in 5.0 mi SW 9.2 mph - 0.00 in   Overcast
3:56 AM 46.9 °F - 46.0 °F 97% 29.81 in 7.0 mi SW 10.4 mph - 0.00 in   Overcast
4:39 AM 48.2 °F - 46.4 °F 93% 29.81 in 7.0 mi SW 11.5 mph - N/A   Overcast
4:56 AM 48.9 °F - 46.9 °F 93% 29.81 in 7.0 mi WSW 10.4 mph - N/A   Overcast
5:39 AM 48.2 °F - 46.4 °F 93% 29.82 in 8.0 mi WSW 10.4 mph - N/A   Mostly Cloudy
5:56 AM 48.9 °F - 46.0 °F 90% 29.82 in 9.0 mi West 6.9 mph - N/A   Partly Cloudy
6:56 AM 50.0 °F - 46.0 °F 86% 29.86 in 10.0 mi West 10.4 mph - N/A   Overcast
7:56 AM 48.0 °F - 42.1 °F 80% 29.89 in 10.0 mi West 6.9 mph - N/A   Mostly Cloudy
8:56 AM 46.0 °F 40.6 °F 39.0 °F 76% 29.93 in 10.0 mi West 11.5 mph 19.6 mph N/A   Scattered Clouds
9:56 AM 48.0 °F - 39.0 °F 71% 29.97 in 10.0 mi West 11.5 mph - N/A   Mostly Cloudy
10:56 AM 51.1 °F - 37.9 °F 61% 29.98 in 10.0 mi West 9.2 mph 17.3 mph N/A   Clear
11:56 AM 52.0 °F - 37.0 °F 57% 29.97 in 10.0 mi Variable 5.8 mph - N/A   Mostly Cloudy
12:56 PM 53.1 °F - 36.0 °F 52% 29.96 in 10.0 mi Variable 6.9 mph - N/A   Partly Cloudy
1:56 PM 55.0 °F - 36.0 °F 49% 29.96 in 10.0 mi WSW 9.2 mph - N/A   Partly Cloudy
2:56 PM 55.0 °F - 35.1 °F 47% 29.97 in 10.0 mi West 9.2 mph - N/A   Clear
3:56 PM 54.0 °F - 33.1 °F 45% 29.98 in 10.0 mi West 9.2 mph - N/A   Clear
4:56 PM 52.0 °F - 33.1 °F 49% 30.01 in 10.0 mi West 8.1 mph - N/A   Clear
5:56 PM 48.0 °F - 33.1 °F 56% 30.04 in 10.0 mi West 5.8 mph - N/A   Clear
6:56 PM 45.0 °F 42.6 °F 32.0 °F 60% 30.07 in 10.0 mi West 4.6 mph - N/A   Clear
7:56 PM 43.0 °F 40.3 °F 30.9 °F 62% 30.10 in 10.0 mi WNW 4.6 mph - N/A   Clear
8:56 PM 37.9 °F 35.5 °F 30.9 °F 76% 30.12 in 10.0 mi WSW 3.5 mph - N/A   Clear
9:56 PM 37.0 °F 34.5 °F 30.0 °F 76% 30.14 in 10.0 mi West 3.5 mph - N/A   Clear
10:56 PM 36.0 °F 33.3 °F 28.9 °F 76% 30.15 in 10.0 mi WSW 3.5 mph - N/A   Clear
11:56 PM 35.1 °F - 28.9 °F 78% 30.15 in 10.0 mi Calm Calm - N/A   Clear